Weather WX

World > North America > United States > Florida

San Mateo, Florida Regional Weather

Lat: 29.61N, Lon: 81.58W
Wx Zone: FLZ037
Feedback

San Mateo, FL Regional Weather

Expires:201907190900;;291334
ASUS42 KTBW 190818
RWRFL 
FLORIDA REGIONAL WEATHER ROUNDUP
NATIONAL WEATHER SERVICE TAMPA BAY RUSKIN FL
400 AM EDT FRI JUL 19 2019

NOTE: "FAIR" INDICATES FEW OR NO CLOUDS BELOW 12,000 FEET WITH NO
SIGNIFICANT WEATHER AND/OR OBSTRUCTIONS TO VISIBILITY.


FLZ011-016>038-118-127-128-134-139-239-190900-
NORTH FLORIDA
  
CITY           SKY/WX    TMP DP  RH WIND       PRES   REMARKS
MARIANNA       FAIR      76  75  97 SE3       30.03S                  
TALLAHASSEE    FAIR      78  76  93 CALM      30.04F                  
PERRY          FAIR      78  77  97 CALM      30.05F                  
LIVE OAK       CLEAR     77  77 100 CALM      30.05S                  
CROSS CITY     FAIR      77  77 100 CALM      30.05F                  
LAKE CITY      FAIR      73  73 100 CALM      30.05F                  
GAINESVILLE    FAIR      76  75  97 W5        30.08F                  
WILLISTON      FAIR      74  74  99 CALM      30.05F                  
PALATKA        FAIR      75  73  94 CALM      30.06S                  
MAYPORT NAS    FAIR      78  74  87 S7        30.04S                  
JACKSONVILLE   FAIR      78  74  87 CALM      30.03F                  
JAX NAS        MOCLDY    82  74  76 VRB5      30.05S                  
JAX CECIL      FAIR      75  73  94 S5        30.04F                  
FERNANDINA BEA FAIR      80  77  91 W3        30.04S                  
ST AUGUSTINE   FAIR      77  73  87 SW6       30.06S                  
PALM COAST     FAIR      75  72  88 CALM      30.05S                  

STATION/POSITION SKY/WX   TEMP    WIND        PRES    WAVE   SWELL
                          AIR SEA DIR/SP/G            HT/PER HT/PER
                          (F)     (DEG/KT/KT) (MB)    (FT/S) (FT/S)
SHELL POINT      NOT AVBL
KEATON BEACH               80      50/  1/  2 1017.5F
CEDAR KEY                  84     170/  4/  5 1017.5F
FERNANDINA                 84 86  190/  2/  3 1017.8F
30.7N   81.3W                 83                N/A     2/ 4
MAYPORT                    80 83  200/  5/  6 1017.5
31.4N   80.9W              83 84  200/  8/ 10 1016.8F   2/ 4   2/ 4
ST AUGUSTINE               78 79  220/  6/  8 1017.6F

$$

SKY/WX - Weather  TMP - Temperature  DP - Dew Point  RH - Relative Humidity
WIND - Wind Direction/Speed PRES - Barometric Pressure VSB - Visibility
WCI - Wind Chill Index E13G22 Wind - East Wind 13 mph/Gusts of 22 mph